Regional Weather Roundup
Issued by NWS

Home | Current Version | Previous Version | Graphics & Text | Print | Product List | Glossary On
Versions: 1 2 3 4 5 6 7 8 9 10 11 12 13 14 15 16 17 18 19 20 21 22 23 24 25 26 27 28 29 30 31 32 33 34 35 36 37 38 39 40 41 42 43 44 45 46 47 48 49 50
000
ASUS43 KMKX 301300
RWRWI

WISCONSIN REGIONAL WEATHER ROUNDUP
NATIONAL WEATHER SERVICE MILWAUKEE/SULLIVAN WI
800 AM CDT THU JUL 30 2015

NOTE: "FAIR" INDICATES FEW OR NO CLOUDS BELOW 12,000 FEET WITH NO
SIGNIFICANT WEATHER AND/OR OBSTRUCTIONS TO VISIBILITY.

WIZ001-002-006>008-014>016-023>028-301400-
NORTHWEST WISCONSIN

CITY           SKY/WX    TMP DP  RH WIND       PRES   REMARKS
SUPERIOR ARPT  SUNNY     65  58  78 W9        29.94S
ASHLAND        SUNNY     68  58  70 W10       29.93R
HAYWARD        SUNNY     66  57  72 SW7       29.99R
SIREN          SUNNY     65  56  71 W8        30.00R
CUMBERLAND     SUNNY     63  55  77 W6        30.01R
RICE LAKE      SUNNY     64  57  77 W9        30.02R
CHETEK         SUNNY     67  57  72 W7        30.01R
LADYSMITH      SUNNY     65  58  77 W7        30.01R
EAU CLAIRE     NOT AVBL
MENOMONIE      SUNNY     67  56  67 W12       30.02S
NEW RICHMOND   SUNNY     67  56  69 SW7       30.02S
OSCEOLA        MOSUNNY   67  57  70 W8        30.04S
$$

WIZ003>005-009-010-017-018-301400-
NORTH CENTRAL WISCONSIN

CITY           SKY/WX    TMP DP  RH WIND       PRES   REMARKS
MANITOWISH WTR SUNNY     64  56  74 W10       29.94R
ARBOR VITAE    SUNNY     64  56  75 W8        29.95R
WOODRUFF       SUNNY     64  56  75 W8        29.95R
RHINELANDER    SUNNY     66  55  67 W13       29.96S
EAGLE RIVER    SUNNY     65  53  64 W15G22    29.93R
LAND O LAKES   SUNNY     66  54  63 W13G20    29.93R
PHILLIPS       SUNNY     63  56  80 W6        29.97R
TOMAHAWK       SUNNY     64  56  73 W9        29.97S
MEDFORD        SUNNY     63  56  79 W7        30.00R
MERRILL        NOT AVBL
$$

WIZ029-030-035-036-043>047-301400-
CENTRAL WISCONSIN

CITY           SKY/WX    TMP DP  RH WIND       PRES   REMARKS
WAUSAU         SUNNY     68  56  65 W12       29.97R
MOSINEE        SUNNY     66  57  72 W8        30.00R
MARSHFIELD     SUNNY     67  55  65 W8        30.00S
STEVENS POINT  SUNNY     65  55  69 W9        30.00R
WAUPACA        SUNNY     70  56  61 W7        29.98S
WAUTOMA        NOT AVBL
WISC RAPIDS    SUNNY     69  55  60 W10       30.01S
CAMP DOUGLAS   NOT AVBL
$$

WIZ011>013-019>022-031-037>040-048>050-301400-
NORTHEAST WISCONSIN

CITY           SKY/WX    TMP DP  RH WIND       PRES   REMARKS
ANTIGO         SUNNY     64  56  74 W10G18    29.97R
SHAWANO        SUNNY     69  57  65 W7        29.96R
OCONTO         SUNNY     68  57  68 W12       29.92R
STURGEON BAY   SUNNY     70  55  60 W14       29.94R
GREEN BAY      SUNNY     70  58  65 W9        29.95S
MANITOWOC      NOT AVBL
APPLETON       SUNNY     66  55  68 W10       29.98R
CLINTONVILLE   SUNNY     68  54  60 W10G16    29.96S
OSHKOSH        SUNNY     70  56  61 W9        29.98R
$$

WIZ032>034-041-042-053>061-301400-
SOUTHWEST WISCONSIN

CITY           SKY/WX    TMP DP  RH WIND       PRES   REMARKS
LA CROSSE      SUNNY     73  56  54 VRB3      30.04R
SPARTA         SUNNY     67  55  64 SW6       30.04S
VIROQUA        SUNNY     65  57  77 W6        30.07S
BOSCOBEL       SUNNY     68  61  78 SW5       30.06S
PRAIRIE DU CHI SUNNY     67  56  67 CALM      30.07S
PLATTEVILLE    SUNNY     65  62  89 W6        30.09R
$$

WIZ056-057-062-063-064-067-068-301400-
SOUTH CENTRAL WISCONSIN

CITY           SKY/WX    TMP DP  RH WIND       PRES   REMARKS
REEDSBURG      SUNNY     68  57  68 W6        30.04S
BARABOO/DELLS  SUNNY     68  54  60 W7        30.04S
LONE ROCK      NOT AVBL
MINERAL POINT  SUNNY     64  59  82 W5        30.08R
MADISON        SUNNY     70  58  65 VRB7      30.03S
MIDDLETON      SUNNY     69  57  66 W8        30.05S
WATERTOWN      SUNNY     67  60  77 W5        30.03R
MONROE         SUNNY     64  57  77 W9        30.07S
JANESVILLE     SUNNY     68  57  68 W6        30.05R
$$

WIZ051-052-058>065-066-070>072-301400-
SOUTHEAST WISCONSIN

CITY           SKY/WX    TMP DP  RH WIND       PRES   REMARKS
MILWAUKEE      SUNNY     73  55  53 NW10      30.01S
WAUKESHA       SUNNY     68  55  64 W14       30.03S
MILWAUKEE/TIMM SUNNY     72  54  53 W13       30.02S
RACINE         SUNNY     71  57  61 VRB7      30.03S
BURLINGTON     SUNNY     67  56  68 W10       30.03S
KENOSHA        SUNNY     70  59  68 W8        30.03S
FOND DU LAC    SUNNY     70  57  63 W12       30.00R
SHEBOYGAN      SUNNY     71  58  63 W12       29.98R
WEST BEND      SUNNY     70  54  56 W10       30.00S
JUNEAU         SUNNY     64  58  80 SW8       30.03S
$$

LSZ147-162-301400-
LAKE SUPERIOR

STATION/POSITION TIME  TEMP    WIND        PRES    WAVE
                       AIR SEA DIR/SP/G            HT/PER
                 (UTC) (F)     (DEG/KT/KT) (MB)    (FT/S)
W MID LAKE BUOY  1150   59 54  250/ 17/ 19 1009.6R   5/ 6
DEVILS ISLAND    1200   62     250/ 22/ 26 1011.6R
PORT WING        1200   67     250/ 14/ 19 1013.2
SAXON HARBOR     1200   68                 1012.5R
$$

LMZ867-665-643>646-301400-
LAKE MICHIGAN

STATION/POSITION TIME  TEMP    WIND        PRES    WAVE
                       AIR SEA DIR/SP/G            HT/PER
                 (UTC) (F)     (DEG/KT/KT) (MB)    (FT/S)
CHAMBERS ISLAND  1200   67     220/  7/ 16 1011.9R
S GREEN BAY BUOY 1200   63 64  240/ 12/ 14 1014.5R
N MID LAKE BUOY  1150   70 69  260/ 19/ 23 1010.0R   4/ 5
NORTHPORT PIER   1200   70     270/  8/ 20 1011.5R
SISTER BAY       1214   72     320/ 21/ 25   N/A
ALGOMA LAKESHORE 1212          300/  7/ 11   N/A
SHEBOYGAN LAKESH 1200   69     270/ 10/ 14 1014.7R
PORT WASHINGTON  1200   72     270/  6/ 14 1015.9
ATWATER BUOY     1200   67     270/ 12/ 14 1017.1R
MILWAUKEE LAKESH 1200   71     280/  8/ 10   N/A
KENOSHA   LAKESH 1200   69     270/  9/ 14 1016.3R
$$

TC  - TEMPERATURE IN CELSIUS
VSB - VISIBILITY IN STATUTE MILES
WCI - WIND CHILL INDEX
HX  - HEAT INDEX



USA.gov is the U.S. government's official web portal to all federal, state and local government web resources and services.